Regional Weather Roundup
Issued by NWS Charleston, WV

Home | Current Version | Previous Version | Graphics & Text | Print | Product List | Glossary On
Versions: 1 2 3 4 5 6 7 8 9 10 11 12 13 14 15 16 17 18 19 20 21 22 23 24 25 26 27 28 29 30 31 32 33 34 35 36 37 38 39 40 41 42 43 44 45 46 47 48 49 50
000
ASUS41 KRLX 191210
RWRRLX
West Virginia Regional Weather Roundup
National Weather Service Charleston WV
800 AM EDT FRI SEP 19 2014

Note: "fair" indicates few or no clouds below 12,000 feet with no
significant weather and/or obstructions to visibility.

WVZ003-191300-
Northern Panhandle of West Virginia

CITY           SKY/WX    TMP DP  RH WIND       PRES   REMARKS
WHEELING       CLEAR     49  47  93 NE6       30.22R FOG
$$

WVZ009-191300-
Northwest West Virginia

CITY           SKY/WX    TMP DP  RH WIND       PRES   REMARKS
PARKERSBURG    CLEAR     47  46  97 CALM      30.21R
$$

WVZ006-191300-
Western West Virginia

CITY           SKY/WX    TMP DP  RH WIND       PRES   REMARKS
HUNTINGTON     CLEAR     51  48  89 NE7       30.16R
$$

WVZ015-191300-
West Central West Virginia

CITY           SKY/WX    TMP DP  RH WIND       PRES   REMARKS
CHARLESTON     MOCLDY    50  50 100 CALM      30.16R FOG
$$

WVZ031-191300-
North Central West Virginia

CITY           SKY/WX    TMP DP  RH WIND       PRES   REMARKS
CLARKSBURG     CLEAR     50  48  93 CALM      30.19R FOG
MORGANTOWN     PTCLDY    51  47  86 N6        30.22R FOG
$$

WVZ035-042-045-191300-
South Central West Virginia

CITY           SKY/WX    TMP DP  RH WIND       PRES   REMARKS
BECKLEY        CLOUDY    56  52  86 MISG      30.18R
BLUEFIELD      CLOUDY    58  54  86 VRB3      30.20R
LEWISBURG      CLOUDY    58  51  76 N3        30.21R
$$

WVZ047-191300-
Northern Mountains of West Virginia

CITY           SKY/WX    TMP DP  RH WIND       PRES   REMARKS
ELKINS         FOG       48  48 100 CALM      30.23R VSB 1/4
$$

WVZ052-191300-
Eastern Panhandle of West Virginia

CITY           SKY/WX    TMP DP  RH WIND       PRES   REMARKS
MARTINSBURG    CLOUDY    55  48  77 N7        30.26R
PETERSBURG     CLOUDY    53  51  92 CALM      30.26R
$$


USA.gov is the U.S. government's official web portal to all federal, state and local government web resources and services.